THY553 HESH-LTAI

Flight info

Callsign THY553
Flight time N/A
Altitude 40000
Route KUPTI1L KUPTI L677 CVO A16 RASDA M855 DERYA
Aircraft A343/H-SDE2E3FGHIJ4J5M1RWXY/LB1D1

Departure

Time 2026-05-06 18:40
Airport Sharm El Sheikh International Airport (HESH)

Arrival

Time N/A
Airport Antalya International Airport (LTAI)
Time Latitude Longitude Altitude Speed Heading
2026-05-06 18:16 27.97855 34.38887 142 ft 0 kts 313°
2026-05-06 18:33 27.97854 34.38888 142 ft 2 kts 313°
2026-05-06 18:33 27.97836 34.38909 142 ft 3 kts 313°
2026-05-06 18:33 27.97822 34.38929 142 ft 4 kts 290°
2026-05-06 18:34 27.97820 34.38957 142 ft 4 kts 250°
2026-05-06 18:34 27.97833 34.38983 142 ft 4 kts 229°
2026-05-06 18:34 27.97851 34.39004 142 ft 3 kts 221°
2026-05-06 18:34 27.97853 34.39006 142 ft 0 kts 221°
2026-05-06 18:36 27.97801 34.38955 142 ft 18 kts 221°
2026-05-06 18:37 27.97686 34.38835 142 ft 24 kts 223°
2026-05-06 18:37 27.97561 34.38703 142 ft 25 kts 223°
2026-05-06 18:37 27.97435 34.38571 142 ft 25 kts 223°
2026-05-06 18:37 27.97300 34.38430 141 ft 26 kts 223°
2026-05-06 18:38 27.97164 34.38292 141 ft 26 kts 222°
2026-05-06 18:38 27.97028 34.38149 141 ft 25 kts 217°
2026-05-06 18:38 27.96967 34.38144 141 ft 8 kts 154°
2026-05-06 18:38 27.96914 34.38199 140 ft 12 kts 132°
2026-05-06 18:39 27.96880 34.38281 140 ft 12 kts 84°
2026-05-06 18:39 27.96930 34.38350 140 ft 12 kts 42°
2026-05-06 18:39 27.97004 34.38428 141 ft 26 kts 43°
2026-05-06 18:40 27.97885 34.39345 143 ft 138 kts 42°
2026-05-06 18:40 27.98681 34.40152 420 ft 159 kts 39°
2026-05-06 18:40 27.99514 34.40945 1076 ft 160 kts 24°
2026-05-06 18:40 28.00612 34.41261 1567 ft 175 kts 11°
2026-05-06 18:41 28.01893 34.41578 1922 ft 204 kts 13°
2026-05-06 18:41 28.03342 34.42004 2519 ft 223 kts 14°
2026-05-06 18:41 28.04876 34.42491 3322 ft 235 kts 15°
2026-05-06 18:41 28.06484 34.43017 4144 ft 246 kts 15°
2026-05-06 18:42 28.08144 34.43567 5108 ft 251 kts 15°
2026-05-06 18:42 28.09836 34.44132 6060 ft 257 kts 16°
2026-05-06 18:42 28.11604 34.44724 6743 ft 272 kts 16°
2026-05-06 18:42 28.13442 34.45341 7545 ft 279 kts 15°
2026-05-06 18:43 28.15326 34.45974 8410 ft 285 kts 14°
2026-05-06 18:43 28.17253 34.46621 9231 ft 292 kts 15°
2026-05-06 18:43 28.19251 34.47138 10040 ft 296 kts
2026-05-06 18:43 28.21332 34.47069 10588 ft 307 kts 345°
2026-05-06 18:44 28.23357 34.46157 10906 ft 323 kts 324°
2026-05-06 18:44 28.25009 34.44418 11468 ft 327 kts 304°
2026-05-06 18:44 28.26037 34.42119 12164 ft 330 kts 285°
2026-05-06 18:44 28.26755 34.39617 12716 ft 340 kts 290°
2026-05-06 18:45 28.27718 34.37148 13495 ft 343 kts 294°
2026-05-06 18:45 28.28745 34.34695 14215 ft 347 kts 294°
2026-05-06 18:45 28.29797 34.32207 14835 ft 352 kts 294°
2026-05-06 18:45 28.30861 34.29693 15593 ft 355 kts 294°
2026-05-06 18:46 28.31934 34.27157 16315 ft 358 kts 294°
2026-05-06 18:46 28.33018 34.24595 17022 ft 361 kts 294°
2026-05-06 18:46 28.34097 34.22045 17729 ft 364 kts 294°
2026-05-06 18:46 28.35214 34.19402 18383 ft 370 kts 294°
2026-05-06 18:47 28.36332 34.16756 18994 ft 373 kts 294°
2026-05-06 18:47 28.37439 34.14136 19632 ft 375 kts 294°
2026-05-06 18:47 28.38582 34.11431 20278 ft 377 kts 293°
2026-05-06 18:47 28.39704 34.08771 20972 ft 376 kts 293°
2026-05-06 18:48 28.40789 34.06112 22040 ft 364 kts 291°
2026-05-06 18:48 28.41765 34.03549 23398 ft 344 kts 289°
2026-05-06 18:48 28.42611 34.01068 24373 ft 331 kts 287°
2026-05-06 18:48 28.43350 33.98585 24802 ft 335 kts 284°
2026-05-06 18:49 28.43999 33.95976 24759 ft 354 kts 282°
2026-05-06 18:49 28.44549 33.93161 24551 ft 377 kts 279°
2026-05-06 18:49 28.44980 33.90155 24592 ft 392 kts 276°
2026-05-06 18:49 28.45274 33.87055 24978 ft 395 kts 273°
2026-05-06 18:50 28.45411 33.83951 25631 ft 390 kts 270°
2026-05-06 18:50 28.45363 33.80920 26609 ft 377 kts 266°
2026-05-06 18:50 28.45120 33.78022 27703 ft 361 kts 262°
2026-05-06 18:50 28.44684 33.75252 28527 ft 354 kts 257°
2026-05-06 18:51 28.44048 33.72533 28796 ft 360 kts 253°
2026-05-06 18:51 28.43194 33.69784 28641 ft 378 kts 249°
2026-05-06 18:51 28.42105 33.66988 28393 ft 397 kts 245°
2026-05-06 18:51 28.40779 33.64179 28409 ft 409 kts 241°
2026-05-06 18:52 28.39244 33.61441 28757 ft 412 kts 237°
2026-05-06 18:52 28.37525 33.58842 29382 ft 410 kts 233°
2026-05-06 18:52 28.35656 33.56454 30247 ft 400 kts 229°
2026-05-06 18:52 28.33657 33.54309 31053 ft 391 kts 224°
2026-05-06 18:53 28.31535 33.52406 31573 ft 389 kts 219°
2026-05-06 18:53 28.29254 33.50701 31721 ft 398 kts 215°
2026-05-06 18:53 28.27346 33.49491 31630 ft 410 kts 211°
2026-05-06 18:53 27.97855 34.38887 31588 ft 13 kts 313°
2026-05-06 19:05 27.97855 34.38886 142 ft 0 kts 315°
2026-05-06 19:05 27.97865 34.38890 142 ft 2 kts 16°
2026-05-06 19:05 27.97873 34.38916 142 ft 8 kts 77°
2026-05-06 19:06 27.97844 34.39002 142 ft 14 kts 128°
2026-05-06 19:06 27.97774 34.39088 142 ft 16 kts 135°
2026-05-06 19:06 27.97745 34.39195 142 ft 16 kts 63°
2026-05-06 19:06 27.97909 34.39374 143 ft 61 kts 42°
2026-05-06 19:07 27.98374 34.39854 141 ft 118 kts 42°
2026-05-06 19:07 27.99094 34.40583 258 ft 152 kts 39°
2026-05-06 19:07 27.99970 34.41213 934 ft 150 kts 19°
2026-05-06 19:07 28.00966 34.41686 1427 ft 164 kts 20°
2026-05-06 19:08 28.02146 34.42107 1684 ft 195 kts 14°
2026-05-06 19:08 28.03573 34.42543 2011 ft 226 kts 14°
2026-05-06 19:08 28.05144 34.43020 2773 ft 239 kts 14°
2026-05-06 19:08 28.06769 34.43520 3716 ft 243 kts 14°
2026-05-06 19:09 28.08400 34.44024 4682 ft 249 kts 14°
2026-05-06 19:09 28.10095 34.44549 5551 ft 257 kts 15°
2026-05-06 19:09 28.11877 34.45101 6324 ft 269 kts 15°
2026-05-06 19:09 28.13695 34.45665 7081 ft 278 kts 15°
2026-05-06 19:10 28.15578 34.46250 7967 ft 283 kts 14°
2026-05-06 19:10 28.17500 34.46846 8834 ft 289 kts 13°
2026-05-06 19:10 28.19468 34.47379 9691 ft 293 kts
2026-05-06 19:10 28.21504 34.47336 10373 ft 299 kts 345°
2026-05-06 19:11 28.23382 34.46270 10684 ft 314 kts 316°
2026-05-06 19:11 28.24699 34.44250 11132 ft 324 kts 296°
2026-05-06 19:11 28.25710 34.41926 11755 ft 332 kts 294°
2026-05-06 19:11 28.26709 34.39535 12421 ft 338 kts 294°
2026-05-06 19:12 28.27724 34.37115 13144 ft 343 kts 294°
2026-05-06 19:12 28.28760 34.34658 13829 ft 348 kts 294°
2026-05-06 19:12 28.29809 34.32180 14577 ft 349 kts 294°
2026-05-06 19:12 28.30866 34.29683 15305 ft 353 kts 294°
2026-05-06 19:13 28.31935 34.27158 15992 ft 357 kts 294°
2026-05-06 19:13 28.33016 34.24602 16717 ft 360 kts 294°
2026-05-06 19:13 28.34105 34.22029 17422 ft 364 kts 294°
2026-05-06 19:13 28.35204 34.19429 18120 ft 368 kts 294°
2026-05-06 19:14 28.36315 34.16799 18702 ft 371 kts 294°
2026-05-06 19:14 28.37436 34.14147 19366 ft 373 kts 294°
2026-05-06 19:14 28.38562 34.11480 20027 ft 375 kts 293°
2026-05-06 19:14 28.39692 34.08802 20660 ft 377 kts 293°
2026-05-06 19:15 28.40831 34.06103 21290 ft 380 kts 293°
2026-05-06 19:15 28.41979 34.03388 21877 ft 382 kts 293°
2026-05-06 19:15 28.43130 34.00655 22498 ft 385 kts 293°
2026-05-06 19:15 28.44288 33.97900 23059 ft 388 kts 293°
2026-05-06 19:16 28.45453 33.95130 23653 ft 390 kts 293°
2026-05-06 19:16 28.46626 33.92337 24100 ft 393 kts 293°
2026-05-06 19:16 28.47808 33.89518 24578 ft 395 kts 293°
2026-05-06 19:16 28.48993 33.86696 25065 ft 397 kts 293°
2026-05-06 19:17 28.50188 33.83854 25539 ft 399 kts 292°
2026-05-06 19:17 28.51382 33.81004 26014 ft 401 kts 292°
2026-05-06 19:17 28.52571 33.78166 26478 ft 402 kts 292°
2026-05-06 19:17 28.53775 33.75290 26951 ft 404 kts 292°
2026-05-06 19:18 28.55001 33.72356 27372 ft 406 kts 292°
2026-05-06 19:18 28.56217 33.69448 27817 ft 408 kts 292°
2026-05-06 19:18 28.57421 33.66566 28194 ft 411 kts 292°
2026-05-06 19:18 28.58650 33.63622 28554 ft 414 kts 292°
2026-05-06 19:19 28.59891 33.60646 28974 ft 416 kts 292°
2026-05-06 19:19 28.61133 33.57667 29381 ft 418 kts 292°
2026-05-06 19:19 28.62420 33.54687 29783 ft 421 kts 295°
2026-05-06 19:19 28.63990 33.51855 30152 ft 426 kts 302°
2026-05-06 19:20 28.65772 33.49138 30462 ft 429 kts 304°
2026-05-06 19:20 28.67640 33.46475 30775 ft 432 kts 305°
2026-05-06 19:20 28.69549 33.43831 31072 ft 434 kts 305°
2026-05-06 19:20 28.71484 33.41166 31388 ft 436 kts 305°
2026-05-06 19:21 28.73414 33.38493 31674 ft 438 kts 305°
2026-05-06 19:21 28.75342 33.35802 31953 ft 439 kts 304°
2026-05-06 19:21 28.77272 33.33089 32229 ft 441 kts 304°
2026-05-06 19:21 28.79194 33.30375 32621 ft 440 kts 304°
2026-05-06 19:22 28.81110 33.27662 33029 ft 438 kts 304°
2026-05-06 19:22 28.83019 33.24956 33424 ft 437 kts 304°
2026-05-06 19:22 28.84920 33.22258 33835 ft 436 kts 304°
2026-05-06 19:22 28.86812 33.19570 34195 ft 435 kts 304°
2026-05-06 19:23 28.88707 33.16878 34493 ft 434 kts 304°
2026-05-06 19:23 28.90591 33.14197 34790 ft 433 kts 304°
2026-05-06 19:23 28.92479 33.11512 35044 ft 433 kts 304°
2026-05-06 19:23 28.94338 33.08865 35347 ft 433 kts 304°
2026-05-06 19:24 28.96245 33.06150 35641 ft 432 kts 304°
2026-05-06 19:24 28.98096 33.03513 35920 ft 431 kts 303°
2026-05-06 19:24 28.99969 33.00842 36216 ft 430 kts 303°
2026-05-06 19:24 29.01841 32.98170 36472 ft 430 kts 303°
2026-05-06 19:25 29.03708 32.95505 36745 ft 430 kts 303°
2026-05-06 19:25 29.05572 32.92841 37012 ft 429 kts 303°
2026-05-06 19:25 29.07437 32.90175 37265 ft 428 kts 303°
2026-05-06 19:25 29.09296 32.87516 37531 ft 428 kts 303°
2026-05-06 19:26 29.11149 32.84863 37829 ft 426 kts 303°
2026-05-06 19:26 29.12999 32.82215 38103 ft 426 kts 303°
2026-05-06 19:26 29.14218 32.80468 38263 ft 425 kts 303°
2026-05-06 19:26 29.16064 32.77819 38509 ft 425 kts 303°
2026-05-06 19:27 29.17902 32.75182 38738 ft 424 kts 303°
2026-05-06 19:27 29.19740 32.72543 38914 ft 424 kts 303°
2026-05-06 19:27 29.21578 32.69902 39067 ft 424 kts 303°
2026-05-06 19:27 29.23415 32.67260 39212 ft 425 kts 303°
2026-05-06 19:28 29.25261 32.64603 39361 ft 425 kts 303°
2026-05-06 19:28 29.27103 32.61952 39505 ft 426 kts 303°
2026-05-06 19:28 29.28946 32.59300 39699 ft 425 kts 303°
2026-05-06 19:28 29.30784 32.56647 39864 ft 425 kts 303°
2026-05-06 19:29 29.32615 32.53984 39992 ft 425 kts 303°
2026-05-06 19:29 29.36290 32.48607 40045 ft 432 kts 303°
2026-05-06 19:30 29.40009 32.43170 40043 ft 432 kts 303°
2026-05-06 19:30 29.43709 32.37768 40049 ft 430 kts 303°
2026-05-06 19:31 29.47404 32.32365 40050 ft 430 kts 303°
2026-05-06 19:31 29.52948 32.24244 40047 ft 431 kts 303°
2026-05-06 19:32 29.56615 32.18866 40050 ft 431 kts 303°
2026-05-06 19:32 29.60306 32.13442 40050 ft 431 kts 303°
2026-05-06 19:33 29.63997 32.08010 40050 ft 431 kts 303°
2026-05-06 19:33 29.67683 32.02579 40049 ft 431 kts 303°
2026-05-06 19:34 29.71375 31.97133 40048 ft 432 kts 303°
2026-05-06 19:34 29.75067 31.91679 40070 ft 432 kts 303°
2026-05-06 19:35 29.78763 31.86214 40051 ft 432 kts 303°
2026-05-06 19:35 29.82362 31.80703 40048 ft 432 kts 301°
2026-05-06 19:36 29.85908 31.75105 40050 ft 432 kts 301°
2026-05-06 19:36 29.89466 31.69506 40050 ft 432 kts 302°
2026-05-06 19:37 29.93016 31.63959 40050 ft 433 kts 302°
2026-05-06 19:37 29.96620 31.58391 40086 ft 433 kts 302°
2026-05-06 19:38 30.00230 31.52816 40095 ft 433 kts 302°
2026-05-06 19:38 30.03809 31.47274 40106 ft 433 kts 302°
2026-05-06 19:39 30.07898 31.42095 40103 ft 441 kts 316°
2026-05-06 19:39 30.13255 31.38508 40101 ft 454 kts 335°
2026-05-06 19:40 30.19435 31.36853 40109 ft 462 kts 345°
2026-05-06 19:40 30.25801 31.35709 40082 ft 464 kts 346°
2026-05-06 19:41 30.32189 31.34612 40070 ft 464 kts 346°
2026-05-06 19:41 30.38572 31.33472 40088 ft 463 kts 346°
2026-05-06 19:42 30.44933 31.32307 40081 ft 462 kts 346°
2026-05-06 19:42 30.51274 31.31144 40080 ft 461 kts 346°
2026-05-06 19:43 30.57622 31.29973 40082 ft 461 kts 346°
2026-05-06 19:43 30.63968 31.28801 40085 ft 461 kts 346°
2026-05-06 19:44 30.70267 31.27639 40086 ft 461 kts 346°
2026-05-06 19:44 30.76597 31.26470 40089 ft 460 kts 346°
2026-05-06 19:45 30.82922 31.25301 40088 ft 460 kts 346°
2026-05-06 19:45 30.89246 31.24130 40097 ft 460 kts 346°
2026-05-06 19:46 30.95561 31.22959 40093 ft 458 kts 346°
2026-05-06 19:46 31.01845 31.21794 40093 ft 457 kts 346°
2026-05-06 19:47 31.08127 31.20626 40093 ft 457 kts 346°
2026-05-06 19:47 31.14412 31.19455 40091 ft 457 kts 346°
2026-05-06 19:48 31.20695 31.18285 40089 ft 456 kts 346°
2026-05-06 19:48 31.26961 31.17116 40099 ft 456 kts 346°
2026-05-06 19:49 31.33227 31.15944 40086 ft 456 kts 346°
2026-05-06 19:49 31.39491 31.14769 40100 ft 456 kts 346°
2026-05-06 19:50 31.45749 31.13594 40094 ft 455 kts 346°
2026-05-06 19:50 31.51958 31.12428 40094 ft 455 kts 346°
2026-05-06 19:51 31.58248 31.11457 40094 ft 457 kts 350°
2026-05-06 19:51 31.64605 31.10875 40095 ft 458 kts 351°
2026-05-06 19:52 31.70958 31.10295 40096 ft 457 kts 351°
2026-05-06 19:52 31.77292 31.09647 40093 ft 457 kts 350°
2026-05-06 19:53 31.83621 31.08968 40099 ft 457 kts 350°
2026-05-06 19:53 31.89950 31.08282 40095 ft 457 kts 350°
2026-05-06 19:54 31.96283 31.07598 40103 ft 457 kts 350°
2026-05-06 19:54 32.02618 31.06915 40103 ft 457 kts 350°
2026-05-06 19:55 32.08949 31.06232 40100 ft 457 kts 350°
2026-05-06 19:55 32.15282 31.05532 40103 ft 457 kts 350°
2026-05-06 19:56 32.21567 31.04836 40107 ft 456 kts 350°
2026-05-06 19:56 32.27881 31.04139 40099 ft 456 kts 350°